Regional Weather Roundup
Issued by NWS Upton, NY

Current Version | Previous Version | Graphics & Text | Print | Product List | Glossary Off
Versions: 1 2 3 4 5 6 7 8 9 10 11 12 13 14 15 16 17 18 19 20 21 22 23 24 25 26 27 28 29 30 31 32 33 34 35 36 37 38 39 40 41 42 43 44 45 46 47 48 49 50

000
ASUS41 KOKX 200105
RWROKX

REGIONAL WEATHER ROUNDUP
NATIONAL WEATHER SERVICE NEW YORK NY
800 PM EST FRI DEC 19 2014

NOTE: "FAIR" INDICATES FEW OR NO CLOUDS BELOW 12,000 FEET WITH NO
SIGNIFICANT WEATHER AND/OR OBSTRUCTIONS TO VISIBILITY.

NYZ071-072-176-178-NJZ106-104-200200-
NEW YORK CITY METRO AREA


CITY           SKY/WX    TMP DP  RH WIND       PRES   REMARKS
CENTRAL PARK   MOCLDY    32  19  58 NW8G17    30.17R WCI  25
LAGUARDIA APRT MOCLDY    33  21  61 NW16      30.16R WCI  23
KENNEDY INTL   MOCLDY    34  19  54 NW15      30.17R WCI  24
NEWARK/LIBERTY MOCLDY    32  21  64 NW12G22   30.17R WCI  23
BRNX BOT. GARD   N/A    N/A N/A N/A W1        30.15F
TETERBORO      CLOUDY    32  20  61 NW10      30.16R WCI  24
$$

NYZ177-179-078>081-200200-
LONG ISLAND NEW YORK

CITY           SKY/WX    TMP DP  RH WIND       PRES   REMARKS
FARMINGDALE    CLOUDY    35  21  56 NW9       30.14R WCI  28
ISLIP          MOCLDY    34  22  61 N10       30.12R WCI  26
SHIRLEY        CLOUDY    33  22  63 N9        30.14R WCI  25
WESTHAMPTON    CLOUDY    33  21  61 NW7       30.14R WCI  27
MONTAUK POINT    N/A     36  23  59 NW9       30.12R WCI  29
$$

NYZ052-065-067-200200-
HUDSON VALLEY

CITY           SKY/WX    TMP DP  RH WIND       PRES   REMARKS
WHITE PLAINS   CLOUDY    32  20  61 NW13      30.12R WCI  22
NEWBURGH       MOCLDY    30  23  74 NW6       30.15R WCI  24
MONTGOMERY     MOCLDY    31  21  66 NW7       30.14R WCI  24
POUGHKEEPSIE   CLEAR     29  19  66 NW3       30.15R
ALBANY         CLOUDY    28  19  69 NW12G20   30.17R WCI  18
$$

NJZ001-105-106-008-010-013-015-019>022-104-200200-
NEW JERSEY

CITY           SKY/WX    TMP DP  RH WIND       PRES   REMARKS
NEWARK/LIBERTY MOCLDY    32  21  64 NW12G22   30.17R WCI  23
TETERBORO      CLOUDY    32  20  61 NW10      30.16R WCI  24
CALDWELL       CLOUDY    31  20  63 NW5       30.17S WCI  26
MORRISTOWN     MOCLDY    32  21  64 N10G17    30.17R WCI  24
SOMERVILLE     CLOUDY    32  19  58 NW13      30.15S WCI  22
SUSSEX         CLOUDY    30  20  66 VRB7      30.15S WCI  23
ANDOVER          N/A     29  20  69 N7        30.15S WCI  22
TRENTON        MOCLDY    32  19  58 N10       30.15F WCI  24
MILLVILLE      CLEAR     27  22  81 SW5       30.17R WCI  22
ATLANTIC CITY  CLEAR     30  22  72 N7        30.16R WCI  23
WRIGHTSTOWN    CLEAR     29  21  70 N10       30.14S WCI  20
TOMS RIVER     CLEAR     30  19  64 NW5       30.16S WCI  25
BELMAR         CLOUDY    34  19  55 N13       30.14F WCI  25
$$

PAZ047>061-062-071-200200-
EASTERN PENNSYLVANIA

CITY           SKY/WX    TMP DP  RH WIND       PRES   REMARKS
PHILADELPHIA   CLEAR     34  21  59 N6        30.18S WCI  29
ALLENTOWN      CLOUDY    33  20  58 N9        30.17F WCI  25
SCRANTON       CLOUDY    30  21  69 N8        30.16F WCI  22
$$

CTZ002-004>006-009-010-012-RIZ004-006-007-MAZ004-011-015-200200-
SOUTHERN NEW ENGLAND
 IN CT

CITY           SKY/WX    TMP DP  RH WIND       PRES   REMARKS
BRADLEY INTL   MOCLDY    30  20  66 NW8       30.11R WCI  22
HARTFORD       CLOUDY    32  20  61 VRB7      30.13R WCI  26
DANBURY        CLEAR     29  17  61 NW5       30.14R WCI  24
WTRBRY/OXFORD  NOT AVBL
BRIDGEPORT     CLEAR     31  20  63 NW7       30.14R WCI  24
MERIDEN        CLOUDY    31  19  61 NW12      30.13R WCI  22
NEW HAVEN      PTCLDY    34  20  56 NW8       30.13R WCI  27
CHESTER        FAIR      32  21  64 NW5       30.11R WCI  27
GROTON         CLOUDY    32  22  66 NW10      30.11R WCI  24
WILLIMANTIC    CLOUDY    32  21  64 NW6       30.10R WCI  26

 IN RI

CITY           SKY/WX    TMP DP  RH WIND       PRES   REMARKS
PROVIDENCE     CLOUDY    33  20  58 NW8       30.09R WCI  26
BLOCK ISLAND   CLOUDY    36  21  55 N6        30.09R WCI  31
WESTERLY       CLOUDY    33  22  63 W5        30.11R WCI  29

 IN MA

CITY           SKY/WX    TMP DP  RH WIND       PRES   REMARKS
BOSTON         PTCLDY    31  20  63 NW9       30.09R WCI  23
WORCESTER      MOCLDY    27  19  72 NW8       30.04R WCI  19
WESTFIELD      CLEAR     28  20  71 NW7       30.10R WCI  21
PROVINCETOWN   CLOUDY    36  25  64 NW12G20   30.07R WCI  27
NANTUCKET      CLOUDY    36  24  62 NW10      30.06R WCI  28
$$

ANZ330-335-338-340-345-350-353-355-200200-
COASTAL MARINE OBSERVATIONS


STATION/POSITION TIME  SKY/WX   TEMP    WIND        PRES    VSBY  WAVE
                                AIR SEA DIR/SP/G                  HT/PER
                 (UTC)          (F)     (DEG/KT/KT) (MB)    (MI)  (FT/S)
NY HARB ENTRANCE 0100            35 46  320/ 17/ 21 1020.8          2/ 4
4S FIRE IS       0100               47                N/A           2/ 3
20S FIRE ISLAND  0000            39 49              1020.4          3/ 4
23SW MTP         0100                                 N/A           3/ 5
HUDSON CANYON    0100            40 55  330/ 16/ 19 1019.5          4/ 6
EXECUTION ROCKS  0100            35 42  310/ 12/ 17   N/A
WESTERN LI SOUND 0100            35     310/ 12/ 14   N/A           1
CENTRAL LI SOUND 0000            33 44  320/ 14/ 17   N/A           2/ 3
EASTERN LI SOUND NOT AVBL
ROBBINS REEF     0100            32     340/  8/ 14 1020.1
$$


>>>>>>>>>>>>>>>>>>>>>>>>>>>> KEY <<<<<<<<<<<<<<<<<<<<<<<<<<<
>                                                          <
>     SKY/WX - SKY CONDITION/PRESENT WEATHER               <
>     TMP    - TEMPERATURE IN FAHRENHEIT                   <
>     DP     - DEWPOINT IN FAHRENHEIT                      <
>     RH     - RELATIVE HUMIDITY IN PERCENT                <
>     WIND   - DIRECTION AND SPEED IN MPH                  <
>     PRES   - MEAN SEA LEVEL PRESSURE IN INCHES OF HG     <
>     WCI    - WIND CHILL INDEX                            <
>     VSB    - VISIBILITY IN MILES                         <
>     HX     - HEAT INDEX                                  <
>     TC     - TEMPERATURE IN CELSIUS                      <
>     VRB    - VARIABLE WIND DIRECTION                     <
>                                                          <
>>>>>>>>>>>>>>>>>>>>>>>>>>>> KEY <<<<<<<<<<<<<<<<<<<<<<<<<<<





USA.gov is the U.S. government's official web portal to all federal, state and local government web resources and services.